Here is the Quick Look data you requested

The Data originates at the National Weather Service, and is made available here by the UAlbany Department of Atmospheric and Environmental Sciences

Surface Observations

KNAK 240354Z AUTO 00000KT 10SM CLR 22/20 A2990 RMK AO2 SLP127 T02170200=
KNAK 240454Z AUTO 00000KT 10SM FEW065 22/20 A2989 RMK AO2 SLP123 T02170200
 402670200
KNAK 240454Z AUTO 00000KT 10SM FEW065 22/20 A2989 RMK AO2 SLP123 T02170200
 402670200=
KNAK 240554Z AUTO 00000KT 10SM CLR 21/20 A2987 RMK AO2 SLP117 T02110200 10244
 20211 58008
KNAK 240554Z AUTO 00000KT 10SM CLR 21/20 A2987 RMK AO2 SLP117 T02110200 10244
 20211 58008=
KNAK 240654Z AUTO 34003KT 10SM CLR 21/20 A2986 RMK AO2 SLP112 T02110200
KNAK 240654Z AUTO 34003KT 10SM CLR 21/20 A2986 RMK AO2 SLP112 T02110200=
KNAK 240754Z AUTO 00000KT 9SM CLR 21/20 A2985 RMK AO2 SLP109 T02110200
KNAK 240754Z AUTO 00000KT 9SM CLR 21/20 A2985 RMK AO2 SLP109 T02110200=
KNAK 240854Z AUTO 00000KT 9SM CLR 21/20 A2985 RMK AO2 SLP110 T02110200 55007
KNAK 240854Z AUTO 00000KT 9SM CLR 21/20 A2985 RMK AO2 SLP110 T02110200 55007=
KNAK 240954Z AUTO 00000KT 10SM CLR 21/19 A2986 RMK AO2 SLP113 T02060189
KNAK 240954Z AUTO 00000KT 10SM CLR 21/19 A2986 RMK AO2 SLP113 T02060189=
KNAK 241054Z AUTO 32003KT 9SM BKN080 21/20 A2988 RMK AO2 SLP120 T02110200
KNAK 241054Z AUTO 32003KT 9SM BKN080 21/20 A2988 RMK AO2 SLP120 T02110200=
KNAK 241154Z AUTO 00000KT 9SM FEW110 23/21 A2988 RMK AO2 SLP121 70003 T02280211
 10228 20200 51012
KNAK 241154Z AUTO 00000KT 9SM FEW110 23/21 A2988 RMK AO2 SLP121 70003 T02280211
 10228 20200 51012=
KNAK 241254Z AUTO 34004KT 10SM CLR 23/20 A2989 RMK AO2 SLP122 T02330200
KNAK 241254Z AUTO 34004KT 10SM CLR 23/20 A2989 RMK AO2 SLP122 T02330200=
KNAK 241354Z AUTO 05008KT 10SM CLR 25/17 A2988 RMK AO2 SLP121 T02500172
KNAK 241354Z AUTO 05008KT 10SM CLR 25/17 A2988 RMK AO2 SLP121 T02500172=
KNAK 241454Z AUTO 01006KT 10SM BKN060 24/16 A2989 RMK AO2 RAB08E24 SLP123 P0000
 60000 T02440161 53002
KNAK 241454Z AUTO 01006KT 10SM BKN060 24/16 A2989 RMK AO2 RAB08E24 SLP123 P0000
 60000 T02440161 53002=
KNAK 241554Z AUTO 07003KT 10SM CLR 26/17 A2988 RMK AO2 SLP121 T02610167
KNAK 241554Z AUTO 07003KT 10SM CLR 26/17 A2988 RMK AO2 SLP121 T02610167=
KNAK 241654Z AUTO 12004KT 10SM CLR 27/17 A2987 RMK AO2 SLP117 T02720167
KNAK 241654Z AUTO 12004KT 10SM CLR 27/17 A2987 RMK AO2 SLP117 T02720167=
KNAK 241754Z AUTO 09003KT 10SM FEW120 27/16 A2985 RMK AO2 SLP108 60000
 T02720161 10272 20222 58015
KNAK 241754Z AUTO 09003KT 10SM FEW120 27/16 A2985 RMK AO2 SLP108 60000
 T02720161 10272 20222 58015=
KNAK 241854Z AUTO 34004KT 10SM CLR 28/14 A2985 RMK AO2 SLP110 T02780139
KNAK 241854Z AUTO 34004KT 10SM CLR 28/14 A2985 RMK AO2 SLP110 T02780139=
KNAK 241954Z AUTO 12003KT 10SM CLR 28/16 A2983 RMK AO2 SLP104 T02830161
KNAK 241954Z AUTO 12003KT 10SM CLR 28/16 A2983 RMK AO2 SLP104 T02830161=
KNAK 242054Z AUTO 13006KT 10SM CLR 28/17 A2982 RMK AO2 SLP101 T02780172 58007
KNAK 242054Z AUTO 13006KT 10SM CLR 28/17 A2982 RMK AO2 SLP101 T02780172 58007=
KNAK 242154Z AUTO 12007KT 10SM CLR 26/20 A2983 RMK AO2 SLP102 T02560200
KNAK 242154Z AUTO 12007KT 10SM CLR 26/20 A2983 RMK AO2 SLP102 T02560200=
KNAK 242254Z AUTO 18004KT 10SM CLR 27/18 A2983 RMK AO2 SLP101 T02720178
KNAK 242254Z AUTO 18004KT 10SM CLR 27/18 A2983 RMK AO2 SLP101 T02720178=
KNAK 242354Z AUTO 15003KT 10SM CLR 25/19 A2982 RMK AO2 SLP098 T02500194 10289
 20250 58002
KNAK 242354Z AUTO 15003KT 10SM CLR 25/19 A2982 RMK AO2 SLP098 T02500194 10289
 20250 58002=
KNAK 250054Z AUTO VRB03KT 10SM CLR 24/18 A2983 RMK AO2 SLP101 T02440178
KNAK 250054Z AUTO VRB03KT 10SM CLR 24/18 A2983 RMK AO2 SLP101 T02440178=
KNAK 250154Z AUTO 00000KT 10SM CLR 24/18 A2986 RMK AO2 SLP112 T02390183
KNAK 250154Z AUTO 00000KT 10SM CLR 24/18 A2986 RMK AO2 SLP112 T02390183=
KNAK 250254Z AUTO 00000KT 10SM CLR 23/17 A2987 RMK AO2 SLP115 T02280172 53016
KNAK 250254Z AUTO 00000KT 10SM CLR 23/17 A2987 RMK AO2 SLP115 T02280172 53016=
KNAK 250354Z AUTO 00000KT 10SM CLR 22/18 A2986 RMK AO2 SLP113 T02220183
KNAK 250354Z AUTO 00000KT 10SM CLR 22/18 A2986 RMK AO2 SLP113 T02220183=
KNAK 250454Z AUTO 00000KT 10SM CLR 21/19 A2986 RMK AO2 SLP114 T02110189
 402890200
KNAK 250454Z AUTO 00000KT 10SM CLR 21/19 A2986 RMK AO2 SLP114 T02110189
 402890200=
KNAK 250554Z AUTO 00000KT 10SM CLR 22/20 A2985 RMK AO2 SLP109 T02220200 10256
 20211 58005
KNAK 250554Z AUTO 00000KT 10SM CLR 22/20 A2985 RMK AO2 SLP109 T02220200 10256
 20211 58005=
KNAK 250654Z AUTO 00000KT 10SM CLR 21/19 A2984 RMK AO2 SLP106 T02060189
KNAK 250654Z AUTO 00000KT 10SM CLR 21/19 A2984 RMK AO2 SLP106 T02060189=
KNAK 250754Z AUTO 00000KT 10SM CLR 21/19 A2983 RMK AO2 SLP104 T02060189
KNAK 250754Z AUTO 00000KT 10SM CLR 21/19 A2983 RMK AO2 SLP104 T02060189=
KNAK 250854Z AUTO 00000KT 8SM CLR 21/19 A2984 RMK AO2 SLP106 T02060194 55004
KNAK 250854Z AUTO 00000KT 8SM CLR 21/19 A2984 RMK AO2 SLP106 T02060194 55004=
KNAK 250954Z AUTO 00000KT 4SM BR CLR 19/19 A2985 RMK AO2 SLP110 T01940189
KNAK 250954Z AUTO 00000KT 4SM BR CLR 19/19 A2985 RMK AO2 SLP110 T01940189=